Location: Dreilärchen
(47.9312°N, 8.6113°E)
Time: 02:50:59
(UTC+00:00)

BREEZE-M DEB (TANK) - Pass Details

Date: 26 May 2022
Orbit: 320 x 13842 km, 49.6° (Epoch: 26 June)

Event Time Altitude Azimuth Distance (km) Brightness Sun altitude
Rises 00:44:57 0° 248° (WSW) 10,467 8.9 -18.5°
Reaches altitude 10° 00:55:15 10° 249° (WSW) 7,127 8.0 -17.9°
Maximum altitude 01:11:13 88° 164° (SSE) 1,163 4.3 -16.8°
Drops below altitude 10° 01:15:26 10° 75° (ENE) 2,054 6.3 -16.5°
Sets 01:16:49 0° 75° (ENE) 2,665 7.0 -16.4°
